Weather History for Montrose, CO

Change the Weather History Date:

Tuesday, April 1, 2014

  Actual Average Record
Temperature  
Mean Temperature 50 °F 45 °F  
Max Temperature 62 °F 59 °F 75 °F (2012)
Min Temperature 38 °F 32 °F 19 °F (2008)
Degree Days  
Heating Degree Days 15 20  
Month to date heating degree days 15 20  
Since 1 July heating degree days 5417 5476  
Cooling Degree Days 0 0  
Month to date cooling degree days 0 0  
Year to date cooling degree days 0 0  
Moisture  
Dew Point 10 °F    
Average Humidity 24    
Maximum Humidity 37    
Minimum Humidity 10    
Precipitation  
Precipitation 0.00 in 0.03 in 0.27 in (1997)
Month to date precipitation 0.00 0.03  
Year to date precipitation 1.66 2.28  
Sea Level Pressure  
Sea Level Pressure 29.62 in    
Wind  
Wind Speed 16 mph (SW)    
Max Wind Speed 38 mph    
Max Gust Speed 53 mph    
Visibility 10 miles    
Events      
T = Trace of Precipitation, MM = Missing Value Source: NWS Daily Summary

Daily Weather History Graph

Daily Weather History Graph

Search for Another Location

Airport:

Trip Planner

Search our weather history database for the weather conditions in past years. The results will help you decide how hot, cold, wet, or windy it might be!

Date:

Astronomy

Apr. 01, 2014 Rise Set
Actual Time 6:56 AM MDT 7:35 PM MDT
Civil Twilight 6:29 AM MDT 8:01 PM MDT
Nautical Twilight 5:58 AM MDT 8:33 PM MDT
Astronomical Twilight 5:25 AM MDT 9:05 PM MDT
Moon 8:02 AM MDT (4/1) 9:58 PM MDT (4/1)
Length of Visible Light 13h 32m
Length of Day
12h 38m
Waxing Crescent, 5% of the Moon is Illuminated
Apr 1
Waxing Crescent
Apr 7
First Quarter
Apr 15
Full
Apr 22
Last Quarter
Apr 29
New

Hourly Weather History & Observations

Time (MDT) Temp. Windchill Dew Point Humidity Pressure Visibility Wind Dir Wind Speed Gust Speed Precip Events Conditions
12:53 AM 43.0 °F 36.8 °F 12.9 °F 30% 29.74 in 10.0 mi SSE 11.5 mph - N/A   Clear
1:53 AM 46.9 °F - 12.0 °F 24% 29.71 in 10.0 mi South 8.1 mph - N/A   Scattered Clouds
2:53 AM 52.0 °F - 10.9 °F 19% 29.68 in 10.0 mi SSW 17.3 mph 38.0 mph N/A   Overcast
3:53 AM 51.1 °F - 10.0 °F 19% 29.67 in 10.0 mi SSW 11.5 mph 20.7 mph N/A   Overcast
4:53 AM 50.0 °F - 12.9 °F 23% 29.69 in 10.0 mi SW 21.9 mph 32.2 mph N/A   Overcast
5:53 AM 50.0 °F - 14.0 °F 24% 29.66 in 10.0 mi SSW 21.9 mph 52.9 mph N/A   Overcast
6:53 AM 48.9 °F - 12.9 °F 24% 29.66 in 10.0 mi South 16.1 mph - N/A   Overcast
7:53 AM 48.0 °F - 15.1 °F 27% 29.68 in 10.0 mi South 11.5 mph - N/A   Overcast
8:53 AM 50.0 °F - 9.0 °F 19% 29.69 in 10.0 mi SW 12.7 mph - N/A   Mostly Cloudy
9:53 AM 52.0 °F - 12.0 °F 20% 29.69 in 10.0 mi WSW 23.0 mph 42.6 mph N/A   Scattered Clouds
10:53 AM 52.0 °F - 10.9 °F 19% 29.68 in 10.0 mi SSW 26.5 mph 39.1 mph N/A   Partly Cloudy
11:53 AM 55.9 °F - 10.0 °F 16% 29.65 in 10.0 mi SW 19.6 mph 27.6 mph N/A   Partly Cloudy
12:53 PM 59.0 °F - 6.1 °F 12% 29.60 in 10.0 mi SW 26.5 mph 51.8 mph N/A   Partly Cloudy
1:53 PM 57.9 °F - 7.0 °F 13% 29.57 in 10.0 mi WSW 27.6 mph 44.9 mph N/A   Clear
2:53 PM 60.1 °F - 8.1 °F 13% 29.53 in 10.0 mi SW 25.3 mph 34.5 mph N/A   Clear
3:53 PM 61.0 °F - 7.0 °F 12% 29.52 in 10.0 mi SW 20.7 mph 34.5 mph N/A   Partly Cloudy
4:53 PM 61.0 °F - 5.0 °F 11% 29.50 in 10.0 mi SW 20.7 mph 31.1 mph N/A   Clear
5:53 PM 61.0 °F - 3.0 °F 10% 29.49 in 10.0 mi WSW 16.1 mph 25.3 mph N/A   Clear
6:53 PM 57.9 °F - 3.9 °F 11% 29.52 in 10.0 mi West 11.5 mph 19.6 mph N/A   Clear
7:53 PM 55.9 °F - 3.9 °F 12% 29.54 in 10.0 mi West 9.2 mph - N/A   Clear
8:53 PM 48.9 °F - 12.9 °F 24% 29.57 in 10.0 mi North 4.6 mph - N/A   Clear
9:53 PM 45.0 °F 43.5 °F 15.1 °F 30% 29.59 in 10.0 mi SSE 3.5 mph - N/A   Clear
10:53 PM 39.9 °F 35.8 °F 16.0 °F 38% 29.62 in 10.0 mi Variable 5.8 mph - N/A   Clear
11:53 PM 48.9 °F - 10.9 °F 22% 29.58 in 10.0 mi SW 17.3 mph 25.3 mph N/A   Clear